Time,TemperatureF,DewpointF,PressureIn,WindDirection,WindDirectionDegrees,WindSpeedMPH,WindSpeedGustMPH,Humidity,HourlyPrecipIn,Conditions,Clouds,dailyrainin,SoftwareType,DateUTC
2013-01-20 00:01:00,41.8,33.1,29.79,WSW,252,6.9,26.5,71,0.00,RA,,0.00,WeatherDisplay:10.37,2013-01-20 05:01:00,
2013-01-20 00:03:00,41.7,33.0,29.79,West,279,10.8,26.0,71,0.00,RA,,0.00,WeatherDisplay:10.37,2013-01-20 05:03:00,
2013-01-20 00:04:00,41.6,32.9,29.80,SW,226,13.4,26.5,71,0.00,RA,,0.00,WeatherDisplay:10.37,2013-01-20 05:04:00,
2013-01-20 00:09:00,41.5,32.4,29.79,WSW,248,15.5,27.6,70,0.00,RA,,0.00,WeatherDisplay:10.37,2013-01-20 05:09:00,
2013-01-20 00:14:00,41.3,31.9,29.79,WSW,244,14.2,21.9,69,0.00,CLR,,0.00,WeatherDisplay:10.37,2013-01-20 05:14:00,
2013-01-20 00:19:00,41.1,31.3,29.79,West,259,12.9,31.1,68,0.00,CLR,,0.00,WeatherDisplay:10.37,2013-01-20 05:19:00,
2013-01-20 00:24:00,40.9,30.4,29.79,WSW,255,14.1,34.5,66,0.00,CLR,,0.00,WeatherDisplay:10.37,2013-01-20 05:24:00,
2013-01-20 00:29:00,40.7,29.5,29.79,West,263,14.2,24.2,64,0.00,CLR,,0.00,WeatherDisplay:10.37,2013-01-20 05:29:00,
2013-01-20 00:34:00,40.5,28.5,29.78,WSW,254,15.9,25.3,62,0.00,CLR,,0.00,WeatherDisplay:10.37,2013-01-20 05:34:00,
2013-01-20 00:39:00,40.2,27.8,29.79,West,273,11.8,20.7,61,0.00,CLR,,0.00,WeatherDisplay:10.37,2013-01-20 05:39:00,
2013-01-20 00:44:00,40.0,27.2,29.79,WSW,258,13.1,23.0,60,0.00,CLR,,0.00,WeatherDisplay:10.37,2013-01-20 05:44:00,
2013-01-20 00:49:00,39.8,27.0,29.80,WSW,240,9.2,16.0,60,0.00,CLR,,0.00,WeatherDisplay:10.37,2013-01-20 05:49:00,
2013-01-20 00:54:00,39.6,26.0,29.80,WSW,252,9.4,26.5,58,0.00,CLR,,0.00,WeatherDisplay:10.37,2013-01-20 05:54:00,
2013-01-20 00:59:00,39.3,23.1,29.80,NW,311,17.0,25.3,52,0.00,CLR,,0.00,WeatherDisplay:10.37,2013-01-20 05:59:00,
2013-01-20 01:04:00,39.1,22.5,29.80,SW,232,13.8,32.2,51,0.00,CLR,,0.00,WeatherDisplay:10.37,2013-01-20 06:04:00,
2013-01-20 01:09:00,38.8,22.2,29.80,WSW,254,17.8,26.5,51,0.00,CLR,,0.00,WeatherDisplay:10.37,2013-01-20 06:09:00,
2013-01-20 01:14:00,38.6,22.9,29.81,WNW,285,16.0,26.5,53,0.00,CLR,,0.00,WeatherDisplay:10.37,2013-01-20 06:14:00,
2013-01-20 01:19:00,38.3,23.1,29.81,WNW,301,7.0,13.8,54,0.00,CLR,,0.00,WeatherDisplay:10.37,2013-01-20 06:19:00,
2013-01-20 01:24:00,38.0,22.8,29.82,WSW,257,17.1,26.5,54,0.00,CLR,,0.00,WeatherDisplay:10.37,2013-01-20 06:24:00,
2013-01-20 01:29:00,37.8,22.6,29.82,WNW,284,8.6,19.6,54,0.00,CLR,,0.00,WeatherDisplay:10.37,2013-01-20 06:29:00,
2013-01-20 01:34:00,37.4,22.7,29.83,West,276,6.5,10.4,55,0.00,CLR,,0.00,WeatherDisplay:10.37,2013-01-20 06:34:00,
2013-01-20 01:39:00,37.0,21.0,29.84,WSW,257,13.2,26.5,52,0.00,CLR,,0.00,WeatherDisplay:10.37,2013-01-20 06:39:00,
2013-01-20 01:44:00,36.5,19.6,29.84,West,271,11.9,18.4,50,0.00,CLR,,0.00,WeatherDisplay:10.37,2013-01-20 06:44:00,
2013-01-20 01:49:00,36.0,18.7,29.84,WNW,288,9.0,20.7,49,0.00,CLR,,0.00,WeatherDisplay:10.37,2013-01-20 06:49:00,
2013-01-20 01:54:00,35.5,18.7,29.84,SW,225,13.9,23.0,50,0.00,CLR,,0.00,WeatherDisplay:10.37,2013-01-20 06:54:00,
2013-01-20 01:59:00,34.9,19.0,29.85,West,261,5.3,19.6,52,0.00,CLR,,0.00,WeatherDisplay:10.37,2013-01-20 06:59:00,
2013-01-20 02:04:00,34.4,19.0,29.86,WNW,291,10.0,18.4,53,0.00,CLR,,0.00,WeatherDisplay:10.37,2013-01-20 07:04:00,
2013-01-20 02:09:00,34.0,19.1,29.86,West,263,8.8,21.9,54,0.00,CLR,,0.00,WeatherDisplay:10.37,2013-01-20 07:09:00,
2013-01-20 02:14:00,33.5,19.0,29.87,WSW,240,4.8,10.4,55,0.00,CLR,,0.00,WeatherDisplay:10.37,2013-01-20 07:14:00,
2013-01-20 02:19:00,33.2,19.6,29.88,West,270,8.0,16.1,57,0.00,CLR,,0.00,WeatherDisplay:10.37,2013-01-20 07:19:00,
2013-01-20 02:24:00,32.9,19.7,29.88,West,271,8.8,19.6,58,0.00,CLR,,0.00,WeatherDisplay:10.37,2013-01-20 07:24:00,
2013-01-20 02:29:00,32.5,19.3,29.88,West,268,18.1,29.9,58,0.00,CLR,,0.00,WeatherDisplay:10.37,2013-01-20 07:29:00,
2013-01-20 02:34:00,32.2,18.2,29.89,WNW,288,13.1,20.7,56,0.00,CLR,,0.00,WeatherDisplay:10.37,2013-01-20 07:34:00,
2013-01-20 02:39:00,31.8,17.5,29.90,WNW,289,11.6,24.2,55,0.00,CLR,,0.00,WeatherDisplay:10.37,2013-01-20 07:39:00,
2013-01-20 02:44:00,31.4,17.1,29.91,West,263,18.3,27.6,55,0.00,CLR,,0.00,WeatherDisplay:10.37,2013-01-20 07:44:00,
2013-01-20 02:49:00,31.1,17.2,29.92,WSW,254,12.2,20.7,56,0.00,CLR,,0.00,WeatherDisplay:10.37,2013-01-20 07:49:00,
2013-01-20 02:54:00,30.8,17.3,29.92,West,281,9.1,13.0,57,0.00,CLR,,0.00,WeatherDisplay:10.37,2013-01-20 07:54:00,
2013-01-20 02:59:00,30.6,18.0,29.93,NW,304,5.2,15.0,59,0.00,CLR,,0.00,WeatherDisplay:10.37,2013-01-20 07:59:00,
2013-01-20 03:04:00,30.3,17.3,29.93,WSW,255,10.5,19.6,58,0.00,CLR,,0.00,WeatherDisplay:10.37,2013-01-20 08:04:00,
2013-01-20 03:09:00,30.0,16.2,29.93,WNW,288,8.1,13.8,56,0.00,CLR,,0.00,WeatherDisplay:10.37,2013-01-20 08:09:00,
2013-01-20 03:14:00,29.7,16.3,29.94,NW,325,4.1,12.7,57,0.00,CLR,,0.00,WeatherDisplay:10.37,2013-01-20 08:14:00,
2013-01-20 03:19:00,29.5,15.7,29.94,WSW,251,5.6,11.5,56,0.00,CLR,,0.00,WeatherDisplay:10.37,2013-01-20 08:19:00,
2013-01-20 03:24:00,29.1,14.1,29.95,West,277,7.1,18.4,53,0.00,CLR,,0.00,WeatherDisplay:10.37,2013-01-20 08:24:00,
2013-01-20 03:29:00,28.8,13.4,29.95,West,271,11.3,19.6,52,0.00,CLR,,0.00,WeatherDisplay:10.37,2013-01-20 08:29:00,
2013-01-20 03:34:00,28.4,13.0,29.96,WSW,256,9.9,19.6,52,0.00,CLR,,0.00,WeatherDisplay:10.37,2013-01-20 08:34:00,
2013-01-20 03:39:00,28.1,13.1,29.97,NW,304,8.7,20.7,53,0.00,CLR,,0.00,WeatherDisplay:10.37,2013-01-20 08:39:00,
2013-01-20 03:44:00,27.7,12.8,29.97,West,279,8.8,17.3,53,0.00,CLR,,0.00,WeatherDisplay:10.37,2013-01-20 08:44:00,
2013-01-20 03:49:00,27.4,12.9,29.97,NNW,336,12.4,19.6,54,0.00,CLR,,0.00,WeatherDisplay:10.37,2013-01-20 08:49:00,
2013-01-20 03:54:00,27.1,12.2,29.98,WNW,293,10.9,19.6,53,0.00,CLR,,0.00,WeatherDisplay:10.37,2013-01-20 08:54:00,
2013-01-20 03:59:00,26.8,12.8,29.98,WNW,300,5.3,19.6,55,0.00,CLR,,0.00,WeatherDisplay:10.37,2013-01-20 08:59:00,
2013-01-20 04:04:00,26.5,12.9,29.98,West,277,9.9,20.7,56,0.00,CLR,,0.00,WeatherDisplay:10.37,2013-01-20 09:04:00,
2013-01-20 04:09:00,26.2,13.0,29.98,West,267,4.7,19.0,57,0.00,CLR,,0.00,WeatherDisplay:10.37,2013-01-20 09:09:00,
2013-01-20 04:14:00,26.0,12.8,29.99,West,264,7.2,15.0,57,0.00,CLR,,0.00,WeatherDisplay:10.37,2013-01-20 09:14:00,
2013-01-20 04:19:00,25.8,12.6,29.99,NW,309,10.7,18.4,57,0.00,CLR,,0.00,WeatherDisplay:10.37,2013-01-20 09:19:00,
2013-01-20 04:24:00,25.7,12.9,29.99,WNW,302,1.8,9.2,58,0.00,CLR,,0.00,WeatherDisplay:10.37,2013-01-20 09:24:00,
2013-01-20 04:29:00,25.6,13.2,29.99,WNW,294,4.7,9.2,59,0.00,CLR,,0.00,WeatherDisplay:10.37,2013-01-20 09:29:00,
2013-01-20 04:34:00,25.3,13.3,29.99,WNW,289,2.8,12.7,60,0.00,CLR,,0.00,WeatherDisplay:10.37,2013-01-20 09:34:00,
2013-01-20 04:39:00,25.1,13.2,30.00,WNW,296,6.8,17.3,60,0.00,CLR,,0.00,WeatherDisplay:10.37,2013-01-20 09:39:00,
2013-01-20 04:44:00,25.0,13.4,30.00,WNW,294,5.1,13.8,61,0.00,CLR,,0.00,WeatherDisplay:10.37,2013-01-20 09:44:00,
2013-01-20 04:49:00,24.9,13.3,30.01,NW,313,9.5,15.0,61,0.00,CLR,,0.00,WeatherDisplay:10.37,2013-01-20 09:49:00,
2013-01-20 04:54:00,24.7,13.5,30.01,West,260,5.0,14.0,62,0.00,CLR,,0.00,WeatherDisplay:10.37,2013-01-20 09:54:00,
2013-01-20 04:59:00,24.5,13.3,30.01,West,277,8.1,17.3,62,0.00,CLR,,0.00,WeatherDisplay:10.37,2013-01-20 09:59:00,
2013-01-20 05:04:00,24.3,13.1,30.02,West,281,4.3,11.5,62,0.00,CLR,,0.00,WeatherDisplay:10.37,2013-01-20 10:04:00,
2013-01-20 05:09:00,24.1,12.9,30.02,West,269,7.4,17.3,62,0.00,CLR,,0.00,WeatherDisplay:10.37,2013-01-20 10:09:00,
2013-01-20 05:14:00,23.8,12.3,30.03,WNW,290,8.5,17.3,61,0.00,CLR,,0.00,WeatherDisplay:10.37,2013-01-20 10:14:00,
2013-01-20 05:19:00,23.7,11.8,30.03,West,263,10.2,19.6,60,0.00,CLR,,0.00,WeatherDisplay:10.37,2013-01-20 10:19:00,
2013-01-20 05:24:00,23.5,12.0,30.03,NW,308,12.4,19.6,61,0.00,CLR,,0.00,WeatherDisplay:10.37,2013-01-20 10:24:00,
2013-01-20 05:29:00,23.4,11.9,30.03,NW,315,11.4,17.3,61,0.00,CLR,,0.00,WeatherDisplay:10.37,2013-01-20 10:29:00,
2013-01-20 05:34:00,23.3,11.8,30.04,NW,304,6.5,15.0,61,0.00,CLR,,0.00,WeatherDisplay:10.37,2013-01-20 10:34:00,
2013-01-20 05:39:00,23.1,11.6,30.05,NW,309,9.0,18.4,61,0.00,CLR,,0.00,WeatherDisplay:10.37,2013-01-20 10:39:00,
2013-01-20 05:44:00,22.9,11.8,30.05,WSW,257,7.4,17.3,62,0.00,CLR,,0.00,WeatherDisplay:10.37,2013-01-20 10:44:00,
2013-01-20 05:49:00,22.7,11.6,30.05,West,271,8.9,17.3,62,0.00,CLR,,0.00,WeatherDisplay:10.37,2013-01-20 10:49:00,
2013-01-20 05:54:00,22.4,11.3,30.05,West,281,8.9,16.1,62,0.00,CLR,,0.00,WeatherDisplay:10.37,2013-01-20 10:54:00,
2013-01-20 05:59:00,22.2,11.5,30.06,WSW,257,5.6,18.4,63,0.00,CLR,,0.00,WeatherDisplay:10.37,2013-01-20 10:59:00,
2013-01-20 06:04:00,21.9,11.2,30.06,WNW,282,1.4,12.7,63,0.00,CLR,,0.00,WeatherDisplay:10.37,2013-01-20 11:04:00,
2013-01-20 06:09:00,21.8,11.5,30.07,WNW,293,4.7,12.7,64,0.00,CLR,,0.00,WeatherDisplay:10.37,2013-01-20 11:09:00,
2013-01-20 06:14:00,21.6,11.3,30.07,WNW,297,4.7,10.4,64,0.00,CLR,,0.00,WeatherDisplay:10.37,2013-01-20 11:14:00,
2013-01-20 06:19:00,21.5,11.5,30.07,WNW,299,6.2,16.1,65,0.00,CLR,,0.00,WeatherDisplay:10.37,2013-01-20 11:19:00,
2013-01-20 06:24:00,21.3,11.4,30.07,WNW,294,9.4,15.0,65,0.00,CLR,,0.00,WeatherDisplay:10.37,2013-01-20 11:24:00,
2013-01-20 06:29:00,21.2,11.6,30.07,WNW,301,4.5,17.3,66,0.00,CLR,,0.00,WeatherDisplay:10.37,2013-01-20 11:29:00,
2013-01-20 06:34:00,21.1,11.5,30.08,NW,304,2.8,7.0,66,0.00,CLR,,0.00,WeatherDisplay:10.37,2013-01-20 11:34:00,
2013-01-20 06:39:00,21.0,11.4,30.09,WNW,290,5.3,18.4,66,0.00,CLR,,0.00,WeatherDisplay:10.37,2013-01-20 11:39:00,
2013-01-20 06:44:00,21.0,11.4,30.09,WNW,292,2.3,10.4,66,0.00,CLR,,0.00,WeatherDisplay:10.37,2013-01-20 11:44:00,
2013-01-20 06:49:00,20.9,11.0,30.10,NW,309,8.2,17.3,65,0.00,CLR,,0.00,WeatherDisplay:10.37,2013-01-20 11:49:00,
2013-01-20 06:54:00,20.8,10.9,30.10,NW,317,3.4,15.0,65,0.00,CLR,,0.00,WeatherDisplay:10.37,2013-01-20 11:54:00,
2013-01-20 06:59:00,20.8,10.9,30.11,NW,307,3.1,5.8,65,0.00,CLR,,0.00,WeatherDisplay:10.37,2013-01-20 11:59:00,
2013-01-20 07:04:00,20.8,11.2,30.11,NW,324,1.9,6.9,66,0.00,CLR,,0.00,WeatherDisplay:10.37,2013-01-20 12:04:00,
2013-01-20 07:09:00,20.7,11.1,30.11,WSW,252,4.9,11.5,66,0.00,CLR,,0.00,WeatherDisplay:10.37,2013-01-20 12:09:00,
2013-01-20 07:14:00,20.6,10.7,30.11,NW,321,4.8,13.8,65,0.00,CLR,,0.00,WeatherDisplay:10.37,2013-01-20 12:14:00,
2013-01-20 07:19:00,20.4,10.5,30.11,West,280,6.7,12.7,65,0.00,CLR,,0.00,WeatherDisplay:10.37,2013-01-20 12:19:00,
2013-01-20 07:24:00,20.4,10.5,30.11,WNW,286,2.1,12.0,65,0.00,CLR,,0.00,WeatherDisplay:10.37,2013-01-20 12:24:00,
2013-01-20 07:29:00,20.3,10.7,30.12,WNW,297,1.4,6.9,66,0.00,CLR,,0.00,WeatherDisplay:10.37,2013-01-20 12:29:00,
2013-01-20 07:34:00,20.2,11.0,30.12,NW,315,1.6,6.9,67,0.00,CLR,,0.00,WeatherDisplay:10.37,2013-01-20 12:34:00,
2013-01-20 07:39:00,20.1,10.9,30.12,WNW,284,6.7,12.7,67,0.00,CLR,,0.00,WeatherDisplay:10.37,2013-01-20 12:39:00,
2013-01-20 07:44:00,19.9,10.7,30.13,NW,319,5.6,13.8,67,0.00,CLR,,0.00,WeatherDisplay:10.37,2013-01-20 12:44:00,
2013-01-20 07:49:00,19.7,10.5,30.13,NW,315,5.8,16.1,67,0.00,CLR,,0.00,WeatherDisplay:10.37,2013-01-20 12:49:00,
2013-01-20 07:54:00,19.7,10.8,30.13,NW,320,7.0,11.5,68,0.00,CLR,,0.00,WeatherDisplay:10.37,2013-01-20 12:54:00,
2013-01-20 07:59:00,19.7,10.8,30.13,NW,315,8.4,16.0,68,0.00,CLR,,0.00,WeatherDisplay:10.37,2013-01-20 12:59:00,
2013-01-20 08:04:00,19.7,10.8,30.14,WNW,286,6.7,15.0,68,0.00,CLR,,0.00,WeatherDisplay:10.37,2013-01-20 13:04:00,
2013-01-20 08:09:00,19.7,10.8,30.14,West,281,6.3,20.7,68,0.00,CLR,,0.00,WeatherDisplay:10.37,2013-01-20 13:09:00,
2013-01-20 08:14:00,19.7,10.8,30.14,West,281,8.7,18.4,68,0.00,CLR,,0.00,WeatherDisplay:10.37,2013-01-20 13:14:00,
2013-01-20 08:19:00,19.6,10.7,30.15,West,277,6.4,18.4,68,0.00,CLR,,0.00,WeatherDisplay:10.37,2013-01-20 13:19:00,
2013-01-20 08:24:00,19.6,11.1,30.15,WNW,292,3.1,11.5,69,0.00,CLR,,0.00,WeatherDisplay:10.37,2013-01-20 13:24:00,
2013-01-20 08:29:00,19.6,11.1,30.16,NW,304,9.7,16.1,69,0.00,CLR,,0.00,WeatherDisplay:10.37,2013-01-20 13:29:00,
2013-01-20 08:34:00,19.6,11.1,30.16,WNW,286,1.8,7.0,69,0.00,CLR,,0.00,WeatherDisplay:10.37,2013-01-20 13:34:00,
2013-01-20 08:39:00,19.5,11.0,30.16,WNW,291,6.4,12.7,69,0.00,CLR,,0.00,WeatherDisplay:10.37,2013-01-20 13:39:00,
2013-01-20 08:44:00,19.4,11.2,30.17,WNW,285,4.4,9.2,70,0.00,CLR,,0.00,WeatherDisplay:10.37,2013-01-20 13:44:00,
2013-01-20 08:49:00,19.4,11.2,30.17,WNW,288,5.6,12.7,70,0.00,CLR,,0.00,WeatherDisplay:10.37,2013-01-20 13:49:00,
2013-01-20 08:54:00,19.3,11.4,30.17,West,265,3.8,6.9,71,0.00,CLR,,0.00,WeatherDisplay:10.37,2013-01-20 13:54:00,
2013-01-20 08:59:00,19.3,11.4,30.17,WNW,295,6.4,13.0,71,0.00,CLR,,0.00,WeatherDisplay:10.37,2013-01-20 13:59:00,
2013-01-20 09:04:00,19.2,11.6,30.18,WNW,298,4.5,17.3,72,0.00,CLR,,0.00,WeatherDisplay:10.37,2013-01-20 14:04:00,
2013-01-20 09:09:00,19.1,11.9,30.18,WNW,283,5.0,11.5,73,0.00,CLR,,0.00,WeatherDisplay:10.37,2013-01-20 14:09:00,
2013-01-20 09:14:00,19.1,11.9,30.19,NNW,329,1.3,6.9,73,0.00,CLR,,0.00,WeatherDisplay:10.37,2013-01-20 14:14:00,
2013-01-20 09:19:00,19.1,12.2,30.20,WNW,288,1.9,9.0,74,0.00,CLR,,0.00,WeatherDisplay:10.37,2013-01-20 14:19:00,
2013-01-20 09:24:00,19.0,12.1,30.20,NW,313,4.1,13.8,74,0.00,CLR,,0.00,WeatherDisplay:10.37,2013-01-20 14:24:00,
2013-01-20 09:29:00,19.0,12.7,30.20,WNW,283,2.3,4.6,76,0.00,CLR,,0.00,WeatherDisplay:10.37,2013-01-20 14:29:00,
2013-01-20 09:34:00,18.9,12.9,30.20,NW,316,1.0,4.6,77,0.00,CLR,,0.00,WeatherDisplay:10.37,2013-01-20 14:34:00,
2013-01-20 09:39:00,18.9,13.2,30.21,NW,326,3.1,10.4,78,0.00,CLR,,0.00,WeatherDisplay:10.37,2013-01-20 14:39:00,
2013-01-20 09:44:00,18.9,13.5,30.21,WNW,292,3.4,9.2,79,0.00,CLR,,0.00,WeatherDisplay:10.37,2013-01-20 14:44:00,
2013-01-20 09:49:00,18.9,13.7,30.22,NNW,328,1.4,9.2,80,0.00,CLR,,0.00,WeatherDisplay:10.37,2013-01-20 14:49:00,
2013-01-20 09:54:00,18.9,13.7,30.22,WNW,292,3.7,11.5,80,0.00,CLR,,0.00,WeatherDisplay:10.37,2013-01-20 14:54:00,
2013-01-20 09:59:00,18.9,13.7,30.22,NW,321,1.4,3.5,80,0.00,CLR,,0.00,WeatherDisplay:10.37,2013-01-20 14:59:00,
2013-01-20 10:04:00,18.8,13.7,30.22,WNW,293,1.9,5.8,80,0.00,CLR,,0.00,WeatherDisplay:10.37,2013-01-20 15:04:00,
2013-01-20 10:09:00,18.9,14.0,30.22,WNW,302,1.1,6.9,81,0.00,CLR,,0.00,WeatherDisplay:10.37,2013-01-20 15:09:00,
2013-01-20 10:14:00,19.0,14.1,30.23,WNW,299,0.0,3.5,81,0.00,CLR,,0.00,WeatherDisplay:10.37,2013-01-20 15:14:00,
2013-01-20 10:19:00,19.1,14.2,30.23,WNW,292,1.1,3.5,81,0.00,CLR,,0.00,WeatherDisplay:10.37,2013-01-20 15:19:00,
2013-01-20 10:24:00,18.9,14.0,30.23,West,279,6.2,13.8,81,0.00,CLR,,0.00,WeatherDisplay:10.37,2013-01-20 15:24:00,
2013-01-20 10:29:00,18.9,14.0,30.23,West,271,1.7,8.0,81,0.00,CLR,,0.00,WeatherDisplay:10.37,2013-01-20 15:29:00,
2013-01-20 10:34:00,19.1,13.7,30.24,NNW,342,2.6,5.8,79,0.00,CLR,,0.00,WeatherDisplay:10.37,2013-01-20 15:34:00,
2013-01-20 10:39:00,19.4,12.8,30.23,WNW,282,6.5,12.7,75,0.00,CLR,,0.00,WeatherDisplay:10.37,2013-01-20 15:39:00,
2013-01-20 10:44:00,19.6,12.7,30.23,West,275,3.8,9.2,74,0.00,CLR,,0.00,WeatherDisplay:10.37,2013-01-20 15:44:00,
2013-01-20 10:49:00,19.7,13.1,30.24,NW,321,3.6,13.8,75,0.00,CLR,,0.00,WeatherDisplay:10.37,2013-01-20 15:49:00,
2013-01-20 10:54:00,19.5,12.9,30.24,NNW,336,2.6,5.8,75,0.00,CLR,,0.00,WeatherDisplay:10.37,2013-01-20 15:54:00,
2013-01-20 10:59:00,19.4,12.5,30.23,NW,323,6.9,11.5,74,0.00,CLR,,0.00,WeatherDisplay:10.37,2013-01-20 15:59:00,
2013-01-20 11:04:00,19.6,13.0,30.24,WNW,286,2.5,9.2,75,0.00,CLR,,0.00,WeatherDisplay:10.37,2013-01-20 16:04:00,
2013-01-20 11:09:00,19.5,12.3,30.24,NW,321,6.0,11.5,73,0.00,CLR,,0.00,WeatherDisplay:10.37,2013-01-20 16:09:00,
2013-01-20 11:14:00,19.5,11.9,30.25,WNW,301,3.9,9.2,72,0.00,CLR,,0.00,WeatherDisplay:10.37,2013-01-20 16:14:00,
2013-01-20 11:19:00,19.8,12.2,30.24,NW,313,4.6,13.8,72,0.00,CLR,,0.00,WeatherDisplay:10.37,2013-01-20 16:19:00,
2013-01-20 11:24:00,19.9,12.0,30.24,WNW,287,3.5,6.9,71,0.00,CLR,,0.00,WeatherDisplay:10.37,2013-01-20 16:24:00,
2013-01-20 11:29:00,20.0,11.8,30.24,WNW,300,4.4,10.4,70,0.00,CLR,,0.00,WeatherDisplay:10.37,2013-01-20 16:29:00,
2013-01-20 11:34:00,19.7,11.5,30.24,WNW,300,7.7,13.8,70,0.00,CLR,,0.00,WeatherDisplay:10.37,2013-01-20 16:34:00,
2013-01-20 11:39:00,19.7,11.5,30.24,WNW,292,3.4,9.2,70,0.00,CLR,,0.00,WeatherDisplay:10.37,2013-01-20 16:39:00,
2013-01-20 11:44:00,19.7,11.5,30.24,WNW,300,5.9,11.5,70,0.00,CLR,,0.00,WeatherDisplay:10.37,2013-01-20 16:44:00,
2013-01-20 11:49:00,20.0,12.1,30.23,NNW,330,4.7,10.4,71,0.00,CLR,,0.00,WeatherDisplay:10.37,2013-01-20 16:49:00,
2013-01-20 11:54:00,20.2,12.0,30.23,NNW,332,5.6,11.5,70,0.00,CLR,,0.00,WeatherDisplay:10.37,2013-01-20 16:54:00,
2013-01-20 11:59:00,20.4,11.8,30.23,NNW,335,4.4,5.8,69,0.00,CLR,,0.00,WeatherDisplay:10.37,2013-01-20 16:59:00,
2013-01-20 12:04:00,20.9,12.6,30.22,NNW,333,5.6,12.0,70,0.00,CLR,,0.00,WeatherDisplay:10.37,2013-01-20 17:04:00,
2013-01-20 12:09:00,21.1,12.2,30.22,WNW,282,3.2,10.0,68,0.00,CLR,,0.00,WeatherDisplay:10.37,2013-01-20 17:09:00,
2013-01-20 12:14:00,21.2,11.9,30.22,NW,317,5.4,12.7,67,0.00,CLR,,0.00,WeatherDisplay:10.37,2013-01-20 17:14:00,
2013-01-20 12:19:00,21.2,11.6,30.22,WNW,295,3.1,11.5,66,0.00,CLR,,0.00,WeatherDisplay:10.37,2013-01-20 17:19:00,
2013-01-20 12:24:00,21.5,12.6,30.22,West,272,4.9,11.5,68,0.00,CLR,,0.00,WeatherDisplay:10.37,2013-01-20 17:24:00,
2013-01-20 12:29:00,21.6,11.6,30.22,WNW,295,10.2,17.3,65,0.00,CLR,,0.00,WeatherDisplay:10.37,2013-01-20 17:29:00,
2013-01-20 12:34:00,21.3,11.7,30.21,WNW,300,0.0,0.0,66,0.00,CLR,,0.00,WeatherDisplay:10.37,2013-01-20 17:34:00,
2013-01-20 12:39:00,21.4,11.8,30.21,NW,323,5.2,11.5,66,0.00,CLR,,0.00,WeatherDisplay:10.37,2013-01-20 17:39:00,
2013-01-20 12:44:00,21.4,11.8,30.21,NW,323,2.2,5.8,66,0.00,CLR,,0.00,WeatherDisplay:10.37,2013-01-20 17:44:00,
2013-01-20 12:49:00,21.8,12.2,30.21,WNW,282,0.0,3.5,66,0.00,CLR,,0.00,WeatherDisplay:10.37,2013-01-20 17:49:00,
2013-01-20 12:54:00,21.9,11.9,30.21,NNW,331,1.6,6.9,65,0.00,CLR,,0.00,WeatherDisplay:10.37,2013-01-20 17:54:00,
2013-01-20 12:59:00,22.0,11.7,30.21,WNW,282,1.5,3.5,64,0.00,CLR,,0.00,WeatherDisplay:10.37,2013-01-20 17:59:00,
2013-01-20 13:04:00,22.1,11.8,30.20,WNW,295,3.0,5.8,64,0.00,CLR,,0.00,WeatherDisplay:10.37,2013-01-20 18:04:00,
2013-01-20 13:09:00,22.1,11.4,30.20,WNW,296,0.9,6.0,63,0.00,CLR,,0.00,WeatherDisplay:10.37,2013-01-20 18:09:00,
2013-01-20 13:14:00,22.1,11.4,30.20,NW,325,2.3,8.1,63,0.00,CLR,,0.00,WeatherDisplay:10.37,2013-01-20 18:14:00,
2013-01-20 13:19:00,22.2,11.5,30.20,West,265,1.6,5.8,63,0.00,CLR,,0.00,WeatherDisplay:10.37,2013-01-20 18:19:00,
2013-01-20 13:24:00,22.1,11.4,30.20,NNW,336,4.6,12.0,63,0.00,CLR,,0.00,WeatherDisplay:10.37,2013-01-20 18:24:00,
2013-01-20 13:29:00,22.0,11.3,30.20,West,265,2.3,6.0,63,0.00,CLR,,0.00,WeatherDisplay:10.37,2013-01-20 18:29:00,
2013-01-20 13:34:00,22.0,11.3,30.20,WNW,285,1.0,1.1,63,0.00,CLR,,0.00,WeatherDisplay:10.37,2013-01-20 18:34:00,
2013-01-20 13:39:00,22.4,11.3,30.20,NW,319,2.6,9.2,62,0.00,CLR,,0.00,WeatherDisplay:10.37,2013-01-20 18:39:00,
2013-01-20 13:44:00,22.6,11.5,30.20,WNW,284,6.0,9.2,62,0.00,CLR,,0.00,WeatherDisplay:10.37,2013-01-20 18:44:00,
2013-01-20 13:49:00,22.6,11.9,30.21,North,349,7.3,13.8,63,0.00,CLR,,0.00,WeatherDisplay:10.37,2013-01-20 18:49:00,
2013-01-20 13:54:00,22.6,11.9,30.21,WNW,290,1.2,10.4,63,0.00,CLR,,0.00,WeatherDisplay:10.37,2013-01-20 18:54:00,
2013-01-20 13:59:00,22.8,11.7,30.21,NW,309,2.0,3.5,62,0.00,CLR,,0.00,WeatherDisplay:10.37,2013-01-20 18:59:00,
2013-01-20 14:04:00,22.7,11.3,30.21,West,271,3.2,7.0,61,0.00,CLR,,0.00,WeatherDisplay:10.37,2013-01-20 19:04:00,
2013-01-20 14:09:00,22.7,11.3,30.20,WNW,291,0.0,0.0,61,0.00,CLR,,0.00,WeatherDisplay:10.37,2013-01-20 19:09:00,
2013-01-20 14:14:00,22.9,11.4,30.20,NNW,332,0.1,5.8,61,0.00,CLR,,0.00,WeatherDisplay:10.37,2013-01-20 19:14:00,
2013-01-20 14:19:00,23.0,11.5,30.20,NW,310,0.1,2.3,61,0.00,CLR,,0.00,WeatherDisplay:10.37,2013-01-20 19:19:00,
2013-01-20 14:24:00,22.9,11.1,30.20,NNW,327,1.3,6.0,60,0.00,CLR,,0.00,WeatherDisplay:10.37,2013-01-20 19:24:00,
2013-01-20 14:29:00,22.7,11.3,30.20,NNW,342,4.3,11.5,61,0.00,CLR,,0.00,WeatherDisplay:10.37,2013-01-20 19:29:00,
2013-01-20 14:34:00,22.8,11.3,30.20,WNW,286,2.8,6.0,61,0.00,CLR,,0.00,WeatherDisplay:10.37,2013-01-20 19:34:00,
2013-01-20 14:39:00,22.8,11.3,30.20,West,279,2.0,4.6,61,0.00,CLR,,0.00,WeatherDisplay:10.37,2013-01-20 19:39:00,
2013-01-20 14:44:00,22.9,11.4,30.20,West,281,0.0,0.0,61,0.00,CLR,,0.00,WeatherDisplay:10.37,2013-01-20 19:44:00,
2013-01-20 14:49:00,22.9,11.4,30.20,NW,307,1.8,8.1,61,0.00,CLR,,0.00,WeatherDisplay:10.37,2013-01-20 19:49:00,
2013-01-20 14:54:00,22.7,11.3,30.20,NNW,341,1.6,8.1,61,0.00,CLR,,0.00,WeatherDisplay:10.37,2013-01-20 19:54:00,
2013-01-20 14:59:00,22.6,11.2,30.20,WNW,296,7.9,16.1,61,0.00,CLR,,0.00,WeatherDisplay:10.37,2013-01-20 19:59:00,
2013-01-20 15:04:00,22.6,11.2,30.21,NNW,338,5.4,10.4,61,0.00,CLR,,0.00,WeatherDisplay:10.37,2013-01-20 20:04:00,
2013-01-20 15:09:00,22.7,11.3,30.21,WNW,301,0.6,0.0,61,0.00,CLR,,0.00,WeatherDisplay:10.37,2013-01-20 20:09:00,
2013-01-20 15:14:00,23.0,11.5,30.21,NW,323,1.3,4.6,61,0.00,CLR,,0.00,WeatherDisplay:10.37,2013-01-20 20:14:00,
2013-01-20 15:19:00,23.1,11.6,30.21,North,355,1.5,0.0,61,0.00,CLR,,0.00,WeatherDisplay:10.37,2013-01-20 20:19:00,
2013-01-20 15:24:00,23.3,11.8,30.21,WNW,287,0.0,4.0,61,0.00,CLR,,0.00,WeatherDisplay:10.37,2013-01-20 20:24:00,
2013-01-20 15:29:00,23.6,12.1,30.21,NW,304,0.0,1.1,61,0.00,CLR,,0.00,WeatherDisplay:10.37,2013-01-20 20:29:00,
2013-01-20 15:34:00,23.8,12.3,30.21,NNW,339,5.4,5.8,61,0.00,CLR,,0.00,WeatherDisplay:10.37,2013-01-20 20:34:00,
2013-01-20 15:39:00,23.6,11.7,30.21,NW,306,1.7,7.0,60,0.00,CLR,,0.00,WeatherDisplay:10.37,2013-01-20 20:39:00,
2013-01-20 15:44:00,23.7,11.4,30.20,NNW,339,3.0,9.2,59,0.00,CLR,,0.00,WeatherDisplay:10.37,2013-01-20 20:44:00,
2013-01-20 15:49:00,23.8,11.5,30.21,NW,305,0.1,4.6,59,0.00,CLR,,0.00,WeatherDisplay:10.37,2013-01-20 20:49:00,
2013-01-20 15:54:00,24.0,11.3,30.21,NW,310,2.2,3.0,58,0.00,CLR,,0.00,WeatherDisplay:10.37,2013-01-20 20:54:00,
2013-01-20 15:59:00,23.6,10.6,30.21,NW,317,0.4,3.5,57,0.00,CLR,,0.00,WeatherDisplay:10.37,2013-01-20 20:59:00,
2013-01-20 16:04:00,23.3,10.7,30.21,NNW,328,0.1,3.5,58,0.00,CLR,,0.00,WeatherDisplay:10.37,2013-01-20 21:04:00,
2013-01-20 16:09:00,23.3,10.3,30.21,NW,308,3.2,10.4,57,0.00,CLR,,0.00,WeatherDisplay:10.37,2013-01-20 21:09:00,
2013-01-20 16:14:00,23.1,10.1,30.21,NW,309,0.2,9.2,57,0.00,CLR,,0.00,WeatherDisplay:10.37,2013-01-20 21:14:00,
2013-01-20 16:19:00,23.0,11.9,30.20,NW,304,0.7,4.6,62,0.00,CLR,,0.00,WeatherDisplay:10.37,2013-01-20 21:19:00,
2013-01-20 16:24:00,23.0,10.0,30.21,NW,317,0.0,6.9,57,0.00,CLR,,0.00,WeatherDisplay:10.37,2013-01-20 21:24:00,
2013-01-20 16:29:00,22.8,9.8,30.21,WNW,301,1.4,9.2,57,0.00,CLR,,0.00,WeatherDisplay:10.37,2013-01-20 21:29:00,
2013-01-20 16:34:00,22.6,9.6,30.21,NNW,334,0.0,5.8,57,0.00,CLR,,0.00,WeatherDisplay:10.37,2013-01-20 21:34:00,
2013-01-20 16:39:00,22.5,9.9,30.21,WNW,286,2.3,5.8,58,0.00,CLR,,0.00,WeatherDisplay:10.37,2013-01-20 21:39:00,
2013-01-20 16:44:00,22.3,9.7,30.21,West,281,0.4,2.3,58,0.00,CLR,,0.00,WeatherDisplay:10.37,2013-01-20 21:44:00,
2013-01-20 16:49:00,22.1,9.6,30.22,NW,319,1.6,6.9,58,0.00,CLR,,0.00,WeatherDisplay:10.37,2013-01-20 21:49:00,
2013-01-20 16:54:00,22.0,9.5,30.22,NW,316,0.3,2.3,58,0.00,CLR,,0.00,WeatherDisplay:10.37,2013-01-20 21:54:00,
2013-01-20 16:59:00,21.9,9.7,30.21,WNW,285,1.6,5.0,59,0.00,CLR,,0.00,WeatherDisplay:10.37,2013-01-20 21:59:00,
2013-01-20 17:04:00,21.8,9.3,30.22,WNW,292,1.3,3.5,58,0.00,CLR,,0.00,WeatherDisplay:10.37,2013-01-20 22:04:00,
2013-01-20 17:09:00,21.7,9.6,30.21,WNW,288,0.3,3.5,59,0.00,CLR,,0.00,WeatherDisplay:10.37,2013-01-20 22:09:00,
2013-01-20 17:14:00,21.6,9.5,30.21,NW,306,0.0,2.3,59,0.00,CLR,,0.00,WeatherDisplay:10.37,2013-01-20 22:14:00,
2013-01-20 17:19:00,21.5,9.7,30.22,NW,307,0.0,0.0,60,0.00,CLR,,0.00,WeatherDisplay:10.37,2013-01-20 22:19:00,
2013-01-20 17:24:00,21.4,9.7,30.22,WSW,255,0.8,3.5,60,0.00,CLR,,0.00,WeatherDisplay:10.37,2013-01-20 22:24:00,
2013-01-20 17:29:00,21.3,9.6,30.22,WNW,294,0.3,4.6,60,0.00,CLR,,0.00,WeatherDisplay:10.37,2013-01-20 22:29:00,
2013-01-20 17:34:00,21.2,8.7,30.22,NW,308,1.2,5.0,58,0.00,CLR,,0.00,WeatherDisplay:10.37,2013-01-20 22:34:00,
2013-01-20 17:39:00,21.2,8.3,30.22,NW,310,0.6,5.8,57,0.00,CLR,,0.00,WeatherDisplay:10.37,2013-01-20 22:39:00,
2013-01-20 17:44:00,21.1,8.2,30.22,WNW,290,0.3,3.5,57,0.00,CLR,,0.00,WeatherDisplay:10.37,2013-01-20 22:44:00,
2013-01-20 17:49:00,21.0,8.1,30.22,WNW,299,0.0,0.0,57,0.00,CLR,,0.00,WeatherDisplay:10.37,2013-01-20 22:49:00,
2013-01-20 17:54:00,20.9,8.4,30.22,NW,323,0.7,4.6,58,0.00,CLR,,0.00,WeatherDisplay:10.37,2013-01-20 22:54:00,
2013-01-20 17:59:00,20.9,8.4,30.23,NNW,332,1.6,6.9,58,0.00,CLR,,0.00,WeatherDisplay:10.37,2013-01-20 22:59:00,
2013-01-20 18:04:00,20.8,8.3,30.23,NW,316,0.7,3.5,58,0.00,CLR,,0.00,WeatherDisplay:10.37,2013-01-20 23:04:00,
2013-01-20 18:09:00,20.7,8.2,30.22,NW,305,0.4,5.0,58,0.00,CLR,,0.00,WeatherDisplay:10.37,2013-01-20 23:09:00,
2013-01-20 18:14:00,20.6,8.5,30.23,NW,311,0.0,0.0,59,0.00,CLR,,0.00,WeatherDisplay:10.37,2013-01-20 23:14:00,
2013-01-20 18:19:00,20.6,8.9,30.23,NNW,330,0.0,0.0,60,0.00,CLR,,0.00,WeatherDisplay:10.37,2013-01-20 23:19:00,
2013-01-20 18:24:00,20.5,9.2,30.22,NNW,329,0.0,1.0,61,0.00,CLR,,0.00,WeatherDisplay:10.37,2013-01-20 23:24:00,
2013-01-20 18:30:00,20.4,9.1,30.23,NNW,329,0.0,0.0,61,0.00,CLR,,0.00,WeatherDisplay:10.37,2013-01-20 23:30:00,
2013-01-20 18:35:00,20.4,9.1,30.23,NNW,329,0.0,0.0,61,0.00,CLR,,0.00,WeatherDisplay:10.37,2013-01-20 23:35:00,
2013-01-20 18:40:00,20.3,9.0,30.23,NNW,328,0.0,0.0,61,0.00,CLR,,0.00,WeatherDisplay:10.37,2013-01-20 23:40:00,
2013-01-20 18:45:00,20.2,8.9,30.23,NNW,327,0.0,0.0,61,0.00,CLR,,0.00,WeatherDisplay:10.37,2013-01-20 23:45:00,
2013-01-20 18:50:00,20.1,9.2,30.23,NNW,327,0.0,0.0,62,0.00,CLR,,0.00,WeatherDisplay:10.37,2013-01-20 23:50:00,
2013-01-20 18:55:00,20.1,9.5,30.23,NNW,327,0.0,0.0,63,0.00,CLR,,0.00,WeatherDisplay:10.37,2013-01-20 23:55:00,
2013-01-20 19:00:00,20.0,9.4,30.23,NNW,327,0.0,0.0,63,0.00,CLR,,0.00,WeatherDisplay:10.37,2013-01-21 00:00:00,
2013-01-20 19:05:00,20.0,9.4,30.23,NNW,327,0.0,0.0,63,0.00,CLR,,0.00,WeatherDisplay:10.37,2013-01-21 00:05:00,
2013-01-20 19:10:00,19.9,9.3,30.23,NNW,327,1.3,1.3,63,0.00,CLR,,0.00,WeatherDisplay:10.37,2013-01-21 00:10:00,
2013-01-20 19:15:00,19.8,9.2,30.23,NNW,328,0.0,0.0,63,0.00,CLR,,0.00,WeatherDisplay:10.37,2013-01-21 00:15:00,
2013-01-20 19:20:00,19.7,9.5,30.23,NNW,328,0.0,0.0,64,0.00,CLR,,0.00,WeatherDisplay:10.37,2013-01-21 00:20:00,
2013-01-20 19:25:00,19.7,9.5,30.23,NNW,328,0.0,0.0,64,0.00,CLR,,0.00,WeatherDisplay:10.37,2013-01-21 00:25:00,
2013-01-20 19:30:00,19.7,9.5,30.23,NNW,328,0.0,0.0,64,0.00,CLR,,0.00,WeatherDisplay:10.37,2013-01-21 00:30:00,
2013-01-20 19:35:00,19.7,9.5,30.22,NNW,328,0.0,0.0,64,0.00,CLR,,0.00,WeatherDisplay:10.37,2013-01-21 00:35:00,
2013-01-20 19:40:00,19.6,9.4,30.23,NNW,328,0.0,0.0,64,0.00,CLR,,0.00,WeatherDisplay:10.37,2013-01-21 00:40:00,
2013-01-20 19:45:00,19.6,9.4,30.22,NNW,328,0.0,0.0,64,0.00,CLR,,0.00,WeatherDisplay:10.37,2013-01-21 00:45:00,
2013-01-20 19:50:00,19.6,9.4,30.23,NNW,328,0.0,0.0,64,0.00,CLR,,0.00,WeatherDisplay:10.37,2013-01-21 00:50:00,
2013-01-20 19:55:00,19.5,9.3,30.23,NNW,328,0.0,0.0,64,0.00,CLR,,0.00,WeatherDisplay:10.37,2013-01-21 00:55:00,
2013-01-20 20:00:00,19.4,9.5,30.23,NNW,328,0.0,0.0,65,0.00,CLR,,0.00,WeatherDisplay:10.37,2013-01-21 01:00:00,
2013-01-20 20:05:00,19.4,9.5,30.23,NNW,328,0.0,0.0,65,0.00,CLR,,0.00,WeatherDisplay:10.37,2013-01-21 01:05:00,
2013-01-20 20:10:00,19.3,9.4,30.22,NNW,328,0.0,0.0,65,0.00,CLR,,0.00,WeatherDisplay:10.37,2013-01-21 01:10:00,
2013-01-20 20:15:00,19.2,9.4,30.22,NNW,328,0.0,0.0,65,0.00,CLR,,0.00,WeatherDisplay:10.37,2013-01-21 01:15:00,
2013-01-20 20:20:00,19.2,9.7,30.22,NNW,328,0.0,0.0,66,0.00,CLR,,0.00,WeatherDisplay:10.37,2013-01-21 01:20:00,
2013-01-20 20:25:00,19.1,9.6,30.22,NNW,328,0.0,0.0,66,0.00,CLR,,0.00,WeatherDisplay:10.37,2013-01-21 01:25:00,
2013-01-20 20:30:00,19.0,9.8,30.22,NNW,328,0.0,0.0,67,0.00,CLR,,0.00,WeatherDisplay:10.37,2013-01-21 01:30:00,
2013-01-20 20:35:00,19.0,9.8,30.23,NNW,328,0.0,0.0,67,0.00,CLR,,0.00,WeatherDisplay:10.37,2013-01-21 01:35:00,
2013-01-20 20:40:00,18.9,9.7,30.23,NNW,328,0.0,0.0,67,0.00,CLR,,0.00,WeatherDisplay:10.37,2013-01-21 01:40:00,
2013-01-20 20:45:00,18.9,9.7,30.23,NNW,328,0.0,0.0,67,0.00,CLR,,0.00,WeatherDisplay:10.37,2013-01-21 01:45:00,
2013-01-20 20:50:00,18.9,9.7,30.22,NNW,328,0.0,0.0,67,0.00,CLR,,0.00,WeatherDisplay:10.37,2013-01-21 01:50:00,
2013-01-20 20:55:00,18.8,9.6,30.22,NNW,328,0.0,0.0,67,0.00,CLR,,0.00,WeatherDisplay:10.37,2013-01-21 01:55:00,
2013-01-20 21:00:00,18.8,10.0,30.22,NNW,328,0.0,0.0,68,0.00,CLR,,0.00,WeatherDisplay:10.37,2013-01-21 02:00:00,
2013-01-20 21:05:00,18.8,10.0,30.22,NNW,328,0.0,0.0,68,0.00,CLR,,0.00,WeatherDisplay:10.37,2013-01-21 02:05:00,
2013-01-20 21:10:00,18.8,10.3,30.22,NNW,328,0.0,0.0,69,0.00,CLR,,0.00,WeatherDisplay:10.37,2013-01-21 02:10:00,
2013-01-20 21:15:00,18.8,10.3,30.22,NNW,328,0.0,0.0,69,0.00,CLR,,0.00,WeatherDisplay:10.37,2013-01-21 02:15:00,
2013-01-20 21:20:00,18.6,10.1,30.21,NNW,328,0.0,0.0,69,0.00,CLR,,0.00,WeatherDisplay:10.37,2013-01-21 02:20:00,
2013-01-20 21:25:00,18.6,10.4,30.21,NNW,328,0.0,0.0,70,0.00,CLR,,0.00,WeatherDisplay:10.37,2013-01-21 02:25:00,
2013-01-20 21:30:00,18.5,10.4,30.21,NNW,328,0.0,0.0,70,0.00,CLR,CLR,0.00,WeatherDisplay:10.37,2013-01-21 02:30:00,
2013-01-20 21:35:00,18.5,10.0,30.20,NNW,328,0.0,0.0,69,0.00,CLR,,0.00,WeatherDisplay:10.37,2013-01-21 02:35:00,
2013-01-20 21:40:00,18.4,9.9,30.21,NNW,328,0.0,0.0,69,0.00,CLR,,0.00,WeatherDisplay:10.37,2013-01-21 02:40:00,
2013-01-20 21:45:00,18.4,10.2,30.21,NNW,328,0.0,0.0,70,0.00,CLR,,0.00,WeatherDisplay:10.37,2013-01-21 02:45:00,
2013-01-20 21:50:00,18.4,10.2,30.21,NNW,328,0.0,0.0,70,0.00,CLR,,0.00,WeatherDisplay:10.37,2013-01-21 02:50:00,
2013-01-20 21:55:00,18.4,10.2,30.20,NNW,328,0.0,0.0,70,0.00,CLR,,0.00,WeatherDisplay:10.37,2013-01-21 02:55:00,
2013-01-20 22:00:00,18.3,10.1,30.20,NNW,328,0.0,0.0,70,0.00,CLR,,0.00,WeatherDisplay:10.37,2013-01-21 03:00:00,
2013-01-20 22:05:00,18.4,10.2,30.20,NNW,328,0.0,0.0,70,0.00,CLR,,0.00,WeatherDisplay:10.37,2013-01-21 03:05:00,
2013-01-20 22:10:00,18.4,10.2,30.20,WNW,293,0.4,0.0,70,0.00,CLR,,0.00,WeatherDisplay:10.37,2013-01-21 03:10:00,
2013-01-20 22:15:00,18.5,10.3,30.20,WNW,293,0.0,1.1,70,0.00,CLR,,0.00,WeatherDisplay:10.37,2013-01-21 03:15:00,
2013-01-20 22:20:00,18.6,10.4,30.20,WNW,293,0.0,0.0,70,0.00,CLR,,0.00,WeatherDisplay:10.37,2013-01-21 03:20:00,
2013-01-20 22:25:00,18.7,10.5,30.20,WNW,293,0.0,0.0,70,0.00,CLR,,0.00,WeatherDisplay:10.37,2013-01-21 03:25:00,
2013-01-20 22:30:00,18.8,10.6,30.20,WNW,293,0.0,1.1,70,0.00,CLR,,0.00,WeatherDisplay:10.37,2013-01-21 03:30:00,
2013-01-20 22:35:00,18.8,10.3,30.20,WNW,292,0.0,0.0,69,0.00,CLR,CLR,0.00,WeatherDisplay:10.37,2013-01-21 03:35:00,
2013-01-20 22:40:00,19.0,9.8,30.20,WSW,247,0.2,4.6,67,0.00,CLR,,0.00,WeatherDisplay:10.37,2013-01-21 03:40:00,
2013-01-20 22:45:00,19.1,9.6,30.20,West,271,0.2,3.5,66,0.00,CLR,,0.00,WeatherDisplay:10.37,2013-01-21 03:45:00,
2013-01-20 22:50:00,19.1,9.6,30.20,West,277,0.7,2.3,66,0.00,CLR,,0.00,WeatherDisplay:10.37,2013-01-21 03:50:00,
2013-01-20 22:55:00,19.1,9.3,30.20,West,270,0.0,4.0,65,0.00,CLR,CLR,0.00,WeatherDisplay:10.37,2013-01-21 03:55:00,
2013-01-20 23:00:00,19.1,9.3,30.20,WSW,257,0.6,2.3,65,0.00,CLR,,0.00,WeatherDisplay:10.37,2013-01-21 04:00:00,
2013-01-20 23:05:00,19.1,9.3,30.19,West,267,0.0,3.5,65,0.00,CLR,,0.00,WeatherDisplay:10.37,2013-01-21 04:05:00,
2013-01-20 23:10:00,19.0,9.2,30.19,West,262,0.6,0.0,65,0.00,CLR,,0.00,WeatherDisplay:10.37,2013-01-21 04:10:00,
2013-01-20 23:15:00,18.9,9.1,30.20,West,277,0.7,3.5,65,0.00,CLR,,0.00,WeatherDisplay:10.37,2013-01-21 04:15:00,
2013-01-20 23:20:00,18.8,9.0,30.20,WSW,250,1.4,3.5,65,0.00,CLR,,0.00,WeatherDisplay:10.37,2013-01-21 04:20:00,
2013-01-20 23:25:00,18.8,9.3,30.20,WSW,258,0.6,2.3,66,0.00,CLR,,0.00,WeatherDisplay:10.37,2013-01-21 04:25:00,
2013-01-20 23:30:00,18.6,9.1,30.20,West,261,0.0,2.0,66,0.00,CLR,CLR,0.00,WeatherDisplay:10.37,2013-01-21 04:30:00,
2013-01-20 23:35:00,18.6,9.1,30.19,West,264,0.0,3.0,66,0.00,CLR,CLR,0.00,WeatherDisplay:10.37,2013-01-21 04:35:00,
2013-01-20 23:40:00,18.5,9.0,30.19,West,278,1.5,0.0,66,0.00,CLR,,0.00,WeatherDisplay:10.37,2013-01-21 04:40:00,
2013-01-20 23:45:00,18.6,9.5,30.19,West,276,0.0,3.5,67,0.00,CLR,,0.00,WeatherDisplay:10.37,2013-01-21 04:45:00,
2013-01-20 23:50:00,18.6,9.5,30.19,West,278,0.8,1.0,67,0.00,CLR,,0.00,WeatherDisplay:10.37,2013-01-21 04:50:00,
2013-01-20 23:55:00,18.6,8.4,30.19,West,273,0.0,0.0,64,0.00,CLR,,0.00,WeatherDisplay:10.37,2013-01-21 04:55:00,